Location: Unspecified
(42.1098°N, 0.0000°E)
Time: 08:27:23
(UTC+00:00)

CZ-6A R/B - Visible Passes

Search period start: 05 April 2026 00:00
Search period end: 15 April 2026 00:00
Orbit: 740 x 853 km, 98.8° (Epoch: 29 March)

Date Brightness Start Highest point End Pass type
(mag) Time Alt. Az. Time Alt. Az. Time Alt. Az.
5 Apr ? 19:49:17 10° SW 19:52:45 19° W 19:56:15 10° NW visible
6 Apr ? 19:20:19 10° SSW 19:24:48 34° W 19:29:23 10° NNW visible
8 Apr ? 20:07:06 10° WSW 20:09:24 13° W 20:11:44 10° WNW visible
9 Apr ? 19:37:22 10° SSW 19:41:23 24° W 19:45:30 10° NW visible
10 Apr ? 19:08:45 10° S 19:13:29 44° W 19:18:22 10° NNW visible
12 Apr ? 19:54:45 10° SW 19:58:01 17° W 20:01:22 10° NW visible
13 Apr ? 19:25:37 10° SSW 19:30:03 31° W 19:34:37 10° NNW visible
